TimeCDT,TemperatureF,Dew PointF,Humidity,Sea Level PressureIn,VisibilityMPH,Wind Direction,Wind SpeedMPH,Gust SpeedMPH,PrecipitationIn,Events,Conditions,WindDirDegrees,DateUTC
12:53 AM,46.9,39.0,74,30.22,10.0,North,5.8,-,N/A,,Overcast,350,2012-10-07 05:53:00
1:53 AM,46.4,39.2,76,30.23,10.0,North,6.9,-,N/A,,Overcast,350,2012-10-07 06:53:00
2:53 AM,46.0,37.9,73,30.24,10.0,North,6.9,-,N/A,,Overcast,360,2012-10-07 07:53:00
3:53 AM,46.0,39.0,76,30.24,10.0,NW,3.5,-,N/A,,Overcast,320,2012-10-07 08:53:00
4:53 AM,44.1,39.0,82,30.25,10.0,NW,4.6,-,N/A,,Partly Cloudy,320,2012-10-07 09:53:00
5:53 AM,43.0,39.0,86,30.27,10.0,NNW,5.8,-,N/A,,Scattered Clouds,330,2012-10-07 10:53:00
6:53 AM,43.0,39.0,86,30.28,10.0,NNW,3.5,-,N/A,,Scattered Clouds,330,2012-10-07 11:53:00
7:53 AM,44.1,39.0,82,30.28,10.0,Calm,Calm,-,N/A,,Partly Cloudy,0,2012-10-07 12:53:00
8:53 AM,48.0,37.0,66,30.28,10.0,North,6.9,-,N/A,,Clear,10,2012-10-07 13:53:00
9:53 AM,48.9,34.0,56,30.29,10.0,NE,8.1,-,N/A,,Clear,40,2012-10-07 14:53:00
10:53 AM,52.0,34.0,50,30.29,10.0,NE,5.8,-,N/A,,Clear,40,2012-10-07 15:53:00
11:53 AM,53.1,35.1,50,30.28,10.0,NE,6.9,-,N/A,,Clear,40,2012-10-07 16:53:00
12:53 PM,55.0,35.1,47,30.26,10.0,NE,8.1,-,N/A,,Clear,40,2012-10-07 17:53:00
1:53 PM,55.9,36.0,47,30.24,10.0,Variable,3.5,-,N/A,,Clear,0,2012-10-07 18:53:00
2:53 PM,55.9,35.1,45,30.22,10.0,Calm,Calm,-,N/A,,Clear,0,2012-10-07 19:53:00
3:53 PM,59.0,36.0,42,30.20,10.0,NNW,9.2,-,N/A,,Clear,330,2012-10-07 20:53:00
4:53 PM,57.0,35.1,44,30.18,10.0,Calm,Calm,-,N/A,,Clear,0,2012-10-07 21:53:00
5:53 PM,55.9,36.0,47,30.19,10.0,Calm,Calm,-,N/A,,Clear,0,2012-10-07 22:53:00
6:53 PM,53.1,44.1,71,30.18,10.0,Calm,Calm,-,N/A,,Clear,0,2012-10-07 23:53:00
7:53 PM,53.1,44.1,71,30.19,10.0,WNW,3.5,-,N/A,,Clear,290,2012-10-08 00:53:00
8:53 PM,53.1,42.1,66,30.19,10.0,Calm,Calm,-,N/A,,Partly Cloudy,0,2012-10-08 01:53:00
9:53 PM,52.0,43.0,71,30.20,10.0,NE,3.5,-,N/A,,Mostly Cloudy,50,2012-10-08 02:53:00
10:53 PM,52.0,44.1,74,30.20,10.0,Calm,Calm,-,N/A,,Overcast,0,2012-10-08 03:53:00
11:53 PM,52.0,43.0,71,30.19,10.0,NNE,3.5,-,N/A,,Overcast,30,2012-10-08 04:53:00